"Pseudo-MPEC" for P115M0H

Created 2020 Sep 19 2:07:22 UT using Find_Orb

Click here for an explanation of pseudo-MPECs

 
 Astrometry: 
     P115M0H  C2020 09 13dU4EP=PyYd.r.AstrometryOd^ZTM=W;.d[n4#Hk`fFN1vk;O%%7F51
     P115M0H  C2020 09 13wgf;%!pRMG'7(u%`wpFcuredacted;NlfCAEclickXBjy^oT.L[IF51
     P115M0H  C2020 09 13-L,(QlYHlvAJ1bGR-JeP:hcrveD1i,]OhhAHhere6gD//I@qpLXtF51
     P115M0H  C2020 09 14.17293 21 50 52.96 -12 30 00.0    ~9E4qx21.5 GVNEOCPV06
     P115M0H  C2020 09 14.17768 21 50 52.30 -12 30 12.3    ~9E4qx      VNEOCPV06
     P115M0H  C2020 09 14.18243 21 50 51.46 -12 30 28.6    ~9E4qx21.4 GVNEOCPV06
     P115M0H  C2020 09 14k.4/PforR'Lq]`2@iTc0SRGbaJ\2@/j;S)d)5EV-%9G747FQ!H*SF52
     P115M0H  C2020 09 14ImnsOn8qcm$FW-\cC(WjsE[?v7hjkM_eW?YojvbnBs$v?GXvlQu'F52
     P115M0H  C2020 09 14KKmRc^Y#6A\,2XHZUB\Yr[PR'[(.,S'S_j8?l;/gR;Sd4?:JS2h3F52
     P115M0H  C2020 09 14ow;W^n^7.()Mty6QRoexplanationoJ]id.Bv40lGYi6'1O?sW,!F52
     P115M0H ^C2020 09 16.31019921 45 35.275-14 15 22.81   ~9I7q 21.88GVNEOCP568
     P115M0H ^C2020 09 16.31116721 45 35.119-14 15 25.75   ~9I7q       VNEOCP568
     P115M0H ^C2020 09 16.31211321 45 34.951-14 15 28.68   ~9I7q 21.98GVNEOCP568

Station data:
(568) Mauna Kea  (N19.826116 W155.472200)  US/Hawaii.
(F51) Pan-STARRS 1, Haleakala  (N20.707235 W156.255910)  US/Hawaii.
   Observers N. Primak, A. Schultz, S. Watters, J. Thiel, T. Goggia. Measurer
   PS1 Science Consortium. 1.8-m Ritchey-Chrétien + CCD.
(F52) Pan-STARRS 2, Haleakala  (N20.707384 W156.255910)  US/Hawaii. 1.8-m
   Ritchey-Chrétien + CCD.
(V06) Catalina Sky Survey-Kuiper  (N32.416847 W110.732550)  US/Arizona.
   Observers T. A. Pruyne, B. M. Africano, E. J. Christensen, G. A. Farneth,
   D. C. Fuls, A. R. Gibbs, A. D. Grauer, H. Gröller, J. A. Johnson, R. A.
   Kowalski, S. M. Larson, G. J. Leonard, D. Rankin, R. L. Seaman, F. C.
   Shelly. 1.55-m reflector + CCD.

Orbital elements:  P115M0H
   Perihelion 2020 Nov 27.760445 TT = 18:15:02 (JD 2459181.260445)
Epoch 2020 Sep 16.0 TT = JDT 2459108.5   Earth MOID: 0.0527   Ma: 0.0732
M 319.30303603                      (J2000 ecliptic)
n   0.55932813     Peri.  264.67105
a   1.45889804     Node   168.11940
e   0.4025815      Incl.    6.76465
P   1.76/643.62d   H   24.4     G   0.15   q 0.87157257  Q 2.04622351
7 of 13 observations 2020 Sept. 14-16 (47.7 hr); mean residual 0".20
Residuals in arcseconds: 
200913 F51( 2.2-  3.3-)   200914 V06(35.0+ 19.1+)   200916 568  .04-  .01-    
200913 F51( 2.1-  3.3-)   200914 F52  .13-  .11-    200916 568  .08+  .02+    
200913 F51( 2.2-  3.3-)   200914 F52  .07+  .11-    200916 568  .03-  .00     
200914 V06(34.8+ 20.5+)   200914 F52  .23+  .56+    
200914 V06(36.2+ 21.8+)   200914 F52  .18-  .33-    

Ephemerides (geocentric):
Date (UTC) HH   RA              Dec         delta   r     elong  mag " sig PA
---- -- -- --  -------------   -----------  ------ ------ -----  --- ---- ---
2020 09 19 02  21 38 22.640   -16 42 15.92  .17647 1.1536 145.0 22.3 37.0  50
2020 09 19 03  21 38 15.955   -16 44 34.34  .17633 1.1533 144.9 22.3 37.8  50
2020 09 19 04  21 38 09.263   -16 46 52.92  .17618 1.1531 144.8 22.3 38.6  51
2020 09 19 05  21 38 02.566   -16 49 11.66  .17604 1.1528 144.8 22.3 39.4  51
2020 09 19 06  21 37 55.863   -16 51 30.57  .17590 1.1525 144.7 22.3 40.2  51
2020 09 19 07  21 37 49.155   -16 53 49.64  .17576 1.1523 144.6 22.3 41.0  51
2020 09 19 08  21 37 42.440   -16 56 08.88  .17562 1.1520 144.5 22.3 41.8  51
2020 09 19 09  21 37 35.720   -16 58 28.28  .17547 1.1518 144.4 22.3 42.6  51
2020 09 19 10  21 37 28.994   -17 00 47.85  .17533 1.1515 144.4 22.3 43.5  51
2020 09 19 11  21 37 22.262   -17 03 07.59  .17519 1.1512 144.3 22.3 44.3  51
2020 09 19 12  21 37 15.524   -17 05 27.48  .17505 1.1510 144.2 22.3 45.2  51
2020 09 19 13  21 37 08.780   -17 07 47.55  .17491 1.1507 144.1 22.3 46.1  51
2020 09 19 14  21 37 02.031   -17 10 07.77  .17477 1.1505 144.0 22.3 46.9  51
2020 09 19 15  21 36 55.275   -17 12 28.17  .17463 1.1502 144.0 22.3 47.8  51
2020 09 19 16  21 36 48.514   -17 14 48.72  .17449 1.1500 143.9 22.3 48.7  51
2020 09 19 17  21 36 41.747   -17 17 09.45  .17435 1.1497 143.8 22.3 49.6  51
2020 09 19 18  21 36 34.974   -17 19 30.33  .17421 1.1494 143.7 22.3 50.5  51
2020 09 19 19  21 36 28.195   -17 21 51.38  .17407 1.1492 143.6 22.3 51.5  51
2020 09 19 20  21 36 21.411   -17 24 12.60  .17393 1.1489 143.5 22.3 52.4  51
2020 09 19 21  21 36 14.620   -17 26 33.98  .17379 1.1487 143.5 22.3 53.3  51
2020 09 19 22  21 36 07.824   -17 28 55.52  .17365 1.1484 143.4 22.3 54.3  51
2020 09 19 23  21 36 01.022   -17 31 17.23  .17352 1.1482 143.3 22.3 55.2  51
2020 09 20 00  21 35 54.214   -17 33 39.10  .17338 1.1479 143.2 22.3 56.2  51
2020 09 20 01  21 35 47.400   -17 36 01.13  .17324 1.1476 143.1 22.3 57.2  51
2020 09 20 02  21 35 40.580   -17 38 23.34  .17310 1.1474 143.1 22.3 58.2  51
2020 09 20 03  21 35 33.754   -17 40 45.70  .17296 1.1471 143.0 22.3 59.2  51
2020 09 20 04  21 35 26.923   -17 43 08.23  .17283 1.1469 142.9 22.3 60.2  51
2020 09 20 05  21 35 20.085   -17 45 30.92  .17269 1.1466 142.8 22.3 61.2  51
2020 09 20 06  21 35 13.242   -17 47 53.78  .17255 1.1464 142.7 22.3 62.2  51
2020 09 20 07  21 35 06.393   -17 50 16.80  .17241 1.1461 142.7 22.3 63.3  51
2020 09 20 08  21 34 59.538   -17 52 39.98  .17228 1.1458 142.6 22.3 64.3  51
2020 09 20 09  21 34 52.677   -17 55 03.33  .17214 1.1456 142.5 22.3 65.4  51
2020 09 20 10  21 34 45.810   -17 57 26.84  .17200 1.1453 142.4 22.3 66.4  51
2020 09 20 11  21 34 38.937   -17 59 50.52  .17187 1.1451 142.3 22.3 67.5  51
2020 09 20 12  21 34 32.058   -18 02 14.36  .17173 1.1448 142.3 22.3 68.6  51
2020 09 20 13  21 34 25.174   -18 04 38.36  .17160 1.1445 142.2 22.3 69.7  51
2020 09 20 14  21 34 18.283   -18 07 02.53  .17146 1.1443 142.1 22.3 70.8  51
2020 09 20 15  21 34 11.387   -18 09 26.86  .17133 1.1440 142.0 22.3 71.9  51
2020 09 20 16  21 34 04.484   -18 11 51.36  .17119 1.1438 141.9 22.3 73.0  51
2020 09 20 17  21 33 57.576   -18 14 16.01  .17105 1.1435 141.8 22.3 74.2  51
2020 09 20 18  21 33 50.662   -18 16 40.83  .17092 1.1433 141.8 22.3 75.3  51
2020 09 20 19  21 33 43.741   -18 19 05.82  .17079 1.1430 141.7 22.3 76.4  51
2020 09 20 20  21 33 36.815   -18 21 30.97  .17065 1.1427 141.6 22.3 77.6  51
2020 09 20 21  21 33 29.883   -18 23 56.28  .17052 1.1425 141.5 22.3 78.8  51
2020 09 20 22  21 33 22.945   -18 26 21.75  .17038 1.1422 141.4 22.3 80.0  51
2020 09 20 23  21 33 16.001   -18 28 47.39  .17025 1.1420 141.4 22.3 81.2  52
2020 09 21 00  21 33 09.051   -18 31 13.19  .17011 1.1417 141.3 22.3 82.4  52
2020 09 21 01  21 33 02.095   -18 33 39.16  .16998 1.1415 141.2 22.3 83.6  52